📊 Raw Sensor Data
Showing records 48451 to 48475 of 85,101 total
| ID | Distance (ft) | Battery V | Battery A | Int Temp (°F) | Int Humid (%) | Ext Temp (°F) | Solar V | RSSI | SNR | Time Stamp |
|---|---|---|---|---|---|---|---|---|---|---|
| 36663 | -- | 3.93 | 0 | 45 | 38 | 47 | 5.10 | -85 | 9 | 04/02/2025 08:45 AM |
| 36662 | -- | 3.93 | 0 | 44 | 38 | 46 | 5.10 | -85 | 9 | 04/02/2025 08:30 AM |
| 36661 | -- | 4.02 | 0 | 42 | 38 | 46 | 5.10 | -84 | 7 | 04/02/2025 08:15 AM |
| 36660 | -- | 4.10 | 0 | 41 | 38 | 44 | 5.10 | -86 | 8 | 04/02/2025 08:00 AM |
| 36659 | -- | 3.93 | 0 | 39 | 39 | 42 | 5.00 | -85 | 9 | 04/02/2025 07:45 AM |
| 36658 | -- | 4.02 | 31 | 38 | 40 | 41 | 4.50 | -88 | 8 | 04/02/2025 07:30 AM |
| 36657 | -- | 3.99 | 9 | 37 | 40 | 39 | 4.50 | -86 | 9 | 04/02/2025 07:15 AM |
| 36656 | 14.9 | 3.88 | -6 | 37 | 40 | 38 | 4.50 | -85 | 7 | 04/02/2025 07:00 AM |
| 36655 | -- | 3.94 | -10 | 37 | 40 | 38 | 4.00 | -87 | 7 | 04/02/2025 06:45 AM |
| 36654 | -- | 3.87 | -5 | 37 | 40 | 38 | 1.40 | -87 | 8 | 04/02/2025 06:30 AM |
| 36653 | -- | 3.81 | -5 | 37 | 40 | 39 | 0.00 | -86 | 7 | 04/02/2025 06:15 AM |
| 36652 | -- | 3.93 | -5 | 37 | 40 | 39 | 0.00 | -85 | 8 | 04/02/2025 06:00 AM |
| 36651 | -- | 3.80 | -5 | 37 | 40 | 39 | 0.00 | -85 | 8 | 04/02/2025 05:45 AM |
| 36650 | -- | 3.88 | -5 | 38 | 40 | 39 | 0.00 | -84 | 8 | 04/02/2025 05:15 AM |
| 36649 | -- | 3.88 | -5 | 38 | 40 | 41 | 0.00 | -84 | 8 | 04/02/2025 05:00 AM |
| 36648 | 14.9 | 3.88 | -5 | 38 | 40 | 40 | 0.00 | -86 | 8 | 04/02/2025 04:45 AM |
| 36647 | -- | 3.95 | -5 | 38 | 40 | 40 | 0.00 | -85 | 7 | 04/02/2025 04:30 AM |
| 36646 | -- | 3.88 | -5 | 39 | 40 | 40 | 0.00 | -85 | 8 | 04/02/2025 04:15 AM |
| 36645 | -- | 3.88 | -5 | 39 | 40 | 41 | 0.00 | -85 | 8 | 04/02/2025 04:00 AM |
| 36644 | -- | 3.84 | -5 | 38 | 41 | 41 | 0.10 | -85 | 7 | 04/02/2025 03:45 AM |
| 36643 | -- | 3.95 | -5 | 37 | 41 | 40 | 0.10 | -84 | 7 | 04/02/2025 03:30 AM |
| 36642 | -- | 3.86 | -5 | 38 | 41 | 39 | 0.00 | -83 | 8 | 04/02/2025 03:15 AM |
| 36641 | -- | 3.88 | -5 | 39 | 41 | 40 | 0.00 | -87 | 7 | 04/02/2025 03:00 AM |
| 36640 | -- | 3.89 | -5 | 39 | 41 | 41 | 0.00 | -86 | 8 | 04/02/2025 02:45 AM |
| 36639 | -- | 3.90 | -5 | 40 | 41 | 41 | 0.00 | -86 | 8 | 04/02/2025 02:30 AM |